Fort Atkinson, Wisconsin, United States (53538)
Lat: 42.93N, Lon: 88.84W
Wx Zone: WIZ064
Local Info
Past Weather Observations for Today

NOTE: This archive is for the closest National Weather Service station to Fort Atkinson. Information may differ from the station used for current weather conditions.

Click here for Long-term Archive

Time Weather Temperature Dewpoint Humidity Pressure Winds Precip Visibility
13:35
Clear
23°F / -5°C 9°F / -13°C 54% 30.45 in
(1031 mb)
NW 4.6 mph
(NW 7 kph)
- 10SM
13:15
Clear
23°F / -5°C 9°F / -13°C 54% 30.45 in
(1031 mb)
Calm - 10SM
12:55
Clear
23°F / -5°C 9°F / -13°C 54% 30.48 in
(1032 mb)
W 6.9 mph
(W 11 kph)
- 10SM
12:35
Clear
21°F / -6°C 9°F / -13°C 58% 30.48 in
(1032 mb)
Calm - 10SM
12:15
Clear
23°F / -5°C 9°F / -13°C 54% 30.51 in
(1033 mb)
Calm - 10SM
11:55
Partly Cloudy
21°F / -6°C 9°F / -13°C 58% 30.51 in
(1033 mb)
SSW 3.5 mph
(SSW 6 kph)
- 10SM
11:35
Partly Cloudy
21°F / -6°C 9°F / -13°C 58% 30.51 in
(1033 mb)
Calm - 10SM
11:15
Clear
21°F / -6°C 9°F / -13°C 58% 30.51 in
(1033 mb)
Calm - 10SM
10:55
Clear
21°F / -6°C 9°F / -13°C 58% 30.51 in
(1033 mb)
N 3.5 mph
(N 6 kph)
- 10SM
10:35
Partly Cloudy
21°F / -6°C 9°F / -13°C 58% 30.54 in
(1034 mb)
NW 3.5 mph
(NW 6 kph)
- 10SM
10:15
Clear
19°F / -7°C 9°F / -13°C 63% 30.54 in
(1034 mb)
NW 5.8 mph
(NW 9 kph)
- 10SM
09:55
Clear
19°F / -7°C 9°F / -13°C 63% 30.54 in
(1034 mb)
NNW 5.8 mph
(NNW 9 kph)
- 10SM
09:35
Clear
19°F / -7°C 9°F / -13°C 63% 30.51 in
(1033 mb)
N 5.8 mph
(N 9 kph)
- 10SM
09:15
Clear
18°F / -8°C 7°F / -14°C 62% 30.51 in
(1033 mb)
NNW 5.8 mph
(NNW 9 kph)
- 10SM
08:55
Clear
18°F / -8°C 7°F / -14°C 62% 30.51 in
(1033 mb)
NNW 6.9 mph
(NNW 11 kph)
- 10SM
08:35
Clear
16°F / -9°C 7°F / -14°C 67% 30.51 in
(1033 mb)
NNW 5.8 mph
(NNW 9 kph)
- 10SM
08:15
Clear
16°F / -9°C 7°F / -14°C 67% 30.51 in
(1033 mb)
NNW 4.6 mph
(NNW 7 kph)
- 10SM
07:55
Clear
14°F / -10°C 7°F / -14°C 73% 30.51 in
(1033 mb)
NNW 4.6 mph
(NNW 7 kph)
- 10SM
07:35
Clear
14°F / -10°C 7°F / -14°C 73% 30.51 in
(1033 mb)
NW 3.5 mph
(NW 6 kph)
- 10SM
07:15
Clear
12°F / -11°C 7°F / -14°C 79% 30.51 in
(1033 mb)
NW 3.5 mph
(NW 6 kph)
- 10SM
06:55
Clear
12°F / -11°C 7°F / -14°C 79% 30.51 in
(1033 mb)
NNW 3.5 mph
(NNW 6 kph)
- 10SM
06:35
Partly Cloudy
14°F / -10°C 7°F / -14°C 73% 30.48 in
(1032 mb)
NW 3.5 mph
(NW 6 kph)
- 10SM
06:15
Clear
14°F / -10°C 7°F / -14°C 73% 30.48 in
(1032 mb)
NW 3.5 mph
(NW 6 kph)
- 10SM
05:55
Partly Cloudy
14°F / -10°C 7°F / -14°C 73% 30.48 in
(1032 mb)
Calm - 10SM
05:35
Mostly Cloudy
14°F / -10°C 7°F / -14°C 73% 30.45 in
(1031 mb)
N 4.6 mph
(N 7 kph)
- 10SM
05:15
Mostly Cloudy
14°F / -10°C 7°F / -14°C 73% 30.45 in
(1031 mb)
NNW 4.6 mph
(NNW 7 kph)
- 10SM
04:55
Clear
16°F / -9°C 7°F / -14°C 67% 30.45 in
(1031 mb)
NW 4.6 mph
(NW 7 kph)
- 10SM
04:35
Clear
16°F / -9°C 7°F / -14°C 67% 30.45 in
(1031 mb)
NNW 8.1 mph
(NNW 13 kph)
- 10SM
04:15
Clear
16°F / -9°C 7°F / -14°C 67% 30.45 in
(1031 mb)
NNW 6.9 mph
(NNW 11 kph)
- 10SM
03:55
Clear
18°F / -8°C 7°F / -14°C 62% 30.42 in
(1030 mb)
N 8.1 mph
(N 13 kph)
- 10SM
03:35
Clear
18°F / -8°C 7°F / -14°C 62% 30.42 in
(1030 mb)
N 8.1 mph
(N 13 kph)
- 10SM
03:15
Partly Cloudy
19°F / -7°C 7°F / -14°C 58% 30.42 in
(1030 mb)
N 9.2 mph
(N 15 kph)
- 10SM
02:55
Overcast
21°F / -6°C 9°F / -13°C 58% 30.42 in
(1030 mb)
NNW 12.7 mph
(NNW 20 kph)
- 10SM
02:35
Overcast
21°F / -6°C 10°F / -12°C 63% 30.39 in
(1029 mb)
N 11.5 mph
(N 19 kph)
- 10SM
02:15
Overcast
23°F / -5°C 14°F / -10°C 68% 30.39 in
(1029 mb)
NNW 6.9 mph
(NNW 11 kph)
- 10SM
01:55
Overcast
23°F / -5°C 12°F / -11°C 63% 30.39 in
(1029 mb)
NNW 5.8 mph
(NNW 9 kph)
- 10SM
01:35
Overcast
23°F / -5°C 10°F / -12°C 58% 30.39 in
(1029 mb)
NNW 8.1 mph
(NNW 13 kph)
- 10SM
01:15
Overcast
23°F / -5°C 10°F / -12°C 58% 30.39 in
(1029 mb)
NNW 10.4 mph
(NNW 17 kph)
- 10SM
00:55
Overcast
23°F / -5°C 10°F / -12°C 58% 30.36 in
(1028 mb)
N 11.5 mph
(N 19 kph)
- 10SM
00:35
Overcast
23°F / -5°C 10°F / -12°C 58% 30.36 in
(1028 mb)
N 9.2 mph
(N 15 kph)
- 10SM
00:15
Overcast
25°F / -4°C 10°F / -12°C 54% 30.36 in
(1028 mb)
N 8.1 mph
(N 13 kph)
- 10SM
Time Weather Temperature Dewpoint Humidity Pressure Winds Precip Visibility


Weather for websites

WeatherForYou.com, LLC is not responsible for any damages or problems caused by this service. Current weather conditions are obtained from the closest station including government and personal stations which may have varying degrees of accuracy. Weather forecasts are derived from the NOAA NDFD. Like all things, this site belongs to Jesus Christ... He just trusts me to maintain it. If you have any questions or comments email webmaster@weatherforyou.com

Copyright © 2015, WeatherForYou.com LLC. All rights reserved.